CZ-4C R/B, 40112

Orbit data source: Space-Track

CZ-4C R/B, 40112 is space debris in LEO originally from a launch on Sat, 09 Aug 2014 UTC launched from the Jiuquan Satellite Launch Center, China (JSC). Debris objects in space refer to the collection of defunct objects orbiting the Earth. Examples of debris include non-operational satellites, rocket bodies, and fragments generated from explosions, collisions, or faulty payload assembly.

Loading next visibility...
Identifier
40112, 2014-047D
Orbit
LEO
Country
Flag of CNCN / PRC
Related business
Manufacturer
SAST
Mission
Spacecraft
Bus & Motor
CZ-4 STAGE 3, Unknown motor
Mass
~1,000 kg wet, ~1,000 kg dry
Launch date (UTC)
2014-08-09 (11 years ago)
Launch vehicle
Unknown
Launch site
Jiuquan Satellite Launch Center, China (JSC)
Object type
Payload
Rocket body
Debris
Shape & HBR
Cyl, 1.4 m
Radar Cross Section
20.385 m², Large (>1 m²)

Expand to show TLE details & history
Last TLE update: 13 hours ago

TLE from 13 hours ago
0 CZ-4C R/B
1 40112U 14047D   26036.02955535  .00000195  00000-0  12030-3 0  9999
2 40112  63.4105 259.3178 0548039   0.1028   0.0029 13.70337830574691
Epoch: 2026-02-05T00:42Z
TLE epoch observation values (Epoch: 2026-02-05T00:42:33.582Z)
Latitude
-0.00005°
Longitude
113.4902°
Altitude
595.857 km
Speed
7.767 km/s
True Right ascension
17h 17m 16s
True Declination
0° 00' 00"
Sunlit
Object was in daylight at epoch
Visualization orbit readout
Latitude
Unknown
Longitude
Unknown
Altitude
Unknown
Speed
Unknown
Apparent Right ascension
Unknown
Apparent Declination
Unknown
Sunlit
N/A
Visualization observer readout
Local Sidereal Time
15:56:59
Azimuth
Unknown
Elevation
Unknown
Doppler factor
Unknown
Orbital elements
Apogee altitude
1,401.362 km
Perigee altitude
592.971 km
Semi-major axis
7,375.304 km
Eccentricity
0.0548
Inclination
63.4105°
RAAN
259.3178°
Arg. of periapsis
0.1028°
True anomaly
0.00324°
Mean anomaly
0.0029°
Eccentric anomaly
0.00307°
Mean motion
3.42668 °/min
Orbital period
105.06 mins
BSTAR
0.0001203
Loading maneuver chart data...
Computing Atmospheric mass density...
Loading historical data...
Loading historical data...
Loading historical data...
Loading historical data...
Loading historical data...
Loading historical data...
Loading historical data...

Documentation

Showing up to 5 results
|